Location: Unspecified
(41.5516°N, 88.1098°W)
Time: 22:21:32
(UTC-05:00)

Okean 3 - Visible Passes

Search period start: 29 April 2016 00:00
Search period end: 09 May 2016 00:00
Orbit: 578 x 604 km, 82.5° (Epoch: 29 April)

Date Brightness Start Highest point End Pass type
(mag) Time Alt. Az. Time Alt. Az. Time Alt. Az.
29 Apr 4.3 21:27:11 30° ESE 21:27:40 31° E 21:31:28 10° NNE visible
29 Apr 5.6 23:03:43 19° W 23:04:59 21° WNW 23:08:17 10° NNW visible
30 Apr 3.7 21:35:01 37° SE 21:36:09 47° E 21:40:17 10° NNE visible
30 Apr 6.2 23:11:33 11° WSW 23:13:42 15° WNW 23:16:07 10° NW visible
01 May 3.4 21:42:47 32° S 21:44:40 74° E 21:48:57 10° NNE visible
02 May 3.6 21:50:28 22° SSW 21:53:13 72° W 21:57:30 10° N visible
03 May 5.3 20:22:44 10° ESE 20:24:59 14° E 20:27:14 10° NE visible
03 May 4.4 21:58:03 12° SSW 22:01:49 46° WNW 22:05:57 10° N visible
04 May 4.8 20:30:10 10° SE 20:33:23 21° E 20:36:36 10° NE visible
04 May 5.2 22:06:39 10° SW 22:10:27 31° WNW 22:14:16 10° NNW visible
05 May 4.3 20:38:02 10° SSE 20:41:49 31° E 20:45:36 10° NNE visible
05 May 5.9 22:15:52 10° WSW 22:19:07 21° WNW 22:22:23 10° NNW visible
06 May 3.7 20:46:11 10° SSE 20:50:17 47° E 20:54:24 10° NNE visible
06 May 6.4 22:25:30 10° WSW 22:27:51 14° WNW 22:30:12 10° NW visible
07 May 3.4 20:54:32 10° S 20:58:47 74° E 21:03:04 10° NNE visible
08 May 3.7 21:03:05 10° SSW 21:07:20 71° W 21:11:36 10° N visible
